Voltar ao catálogo

QIANFAN-48

AtivoComunicaçõesPO
NORAD 62249·PAYLOAD·🇨🇳 China

Lançado Dec 5, 2024 de Taiyuan Satellite Launch Center

Loading…

Próximas Passagens (próximas 24 horas)

TLE

AtualizadoSource: Space-Track

Época: Sep 14, 2026, 14:08 UTC

1 62249U 24232N   26257.58910681  .00000092  00000-0  12306-3 0  9992
2 62249  89.0159  13.5408 0018951 121.7624 238.5377 13.51022373136490

Acompanhe QIANFAN-48 em tempo real com AllMySat

Download on the App Store